Regional Weather Roundup
Issued by NWS Albany, NY

Home | Current Version | Previous Version | Graphics & Text | Print | Product List | Glossary Off
Versions: 1 2 3 4 5 6 7 8 9 10 11 12 13 14 15 16 17 18 19 20 21 22 23 24 25 26 27 28 29 30 31 32 33 34 35 36 37 38 39 40 41 42 43 44 45 46 47 48 49 50

871
ASUS41 KALY 191810
RWRALY

NEW YORK STATE HOURLY WEATHER ROUNDUP
NATIONAL WEATHER SERVICE ALBANY NY
100 PM EST THU JAN 19 2017

NOTE: "FAIR" INDICATES FEW OR NO CLOUDS BELOW 12,000 FEET WITH NO
SIGNIFICANT WEATHER AND/OR NO OBSTRUCTIONS TO VISIBILITY.

NYZ032-033-038>043-046>054-057>066-NYZ062>081-082-084-191900-
EAST


CITY           SKY/WX    TMP DP  RH WIND       PRES   REMARKS
ALBANY         CLOUDY    42  33  70 W13G18    30.01F
GLENS FALLS    CLOUDY    41  36  82 E3        29.98F HAZE
POUGHKEEPSIE   PTSUNNY   43  35  73 N9        29.99F
NEWBURGH       PTSUNNY   45  37  76 NW13      30.00F
MONTGOMERY     CLOUDY    46  35  65 W8        29.99F
WHITE PLAINS   PTSUNNY   46  35  65 NW13      29.98F
ISLIP          PTSUNNY   48  35  60 N13       29.98F
NEW YORK CITY  MOSUNNY   50  35  56 NW13      29.99F
CENTRAL PARK   PTSUNNY   47  34  60 NW9       30.01F
$$

NYZ005>009-017-018-044>046-055-056-191900-
CENTRAL


CITY           SKY/WX    TMP DP  RH WIND       PRES   REMARKS
FULTON         LGT RAIN  37  35  92 W8        30.04F FOG     WCI  31
SYRACUSE       DRIZZLE   37  34  89 W14       30.03F WCI  28
ROME           LGT RAIN  36  35  96 W9        30.03F WCI  29
ELMIRA         CLOUDY    41  31  67 W5        30.02F
BINGHAMTON     CLOUDY    35  33  92 W6        29.99F WCI  30
MONTICELLO     PTSUNNY   37  36  93 W8        29.99F WCI  31
$$

NYZ026>034-041>043-087-191900-
NORTH


CITY           SKY/WX    TMP DP  RH WIND       PRES   REMARKS
WATERTOWN      CLOUDY    38  36  92 W8        30.02F WCI  32
FORT DRUM      NOT AVBL
OGDENSBURG     CLOUDY    38  37  94 W3        30.00F
MASSENA        CLOUDY    37  34  89 SW6       30.01F WCI  32
SARANAC LAKE   LGT SNOW  33  30  88 NW5       29.93S FOG     WCI  29
PLATTSBURGH    CLOUDY    39  31  72 NW9       29.98F WCI  33
$$

NYZ001>004-010>016-019>021-085-191900-
WEST


CITY           SKY/WX    TMP DP  RH WIND       PRES   REMARKS
NIAGARA FALLS  CLOUDY    36  31  82 SW6       30.03F WCI  31
BUFFALO        DRIZZLE   34  31  88 W13       30.03F FOG     WCI  25
DUNKIRK        CLOUDY    36  34  92 W7        30.05F FOG     WCI  30
JAMESTOWN      CLOUDY    34  30  86 SW3       29.99F
WELLSVILLE     CLOUDY    36  32  85 W5        29.99F WCI  32
ROCHESTER      CLOUDY    37  33  85 W10       30.05F WCI  30
PENN YAN       CLOUDY    37  31  78 CALM      30.03F
$$

             KEY
       WCI = WIND CHILL INDEX
       VSB = VISIBILITY
       HX  = HEAT INDEX
$$




USA.gov is the U.S. government's official web portal to all federal, state and local government web resources and services.